Presure
561 512 504 487 474 404 327 353 341 60 221 235 253 267 62 255 240 240 226 223 227 208 200 212 126 198 188 192 180 175 179 170 193 190 179 178 190 190 192 194 211 205 205 210
472 474 506 479 467 434 409 379 387 397 387 343 287 252 251 265 242 223 223 225 227 223 201 218 209 152 190 198 185 188 176 180 201 191 189 194 193 193 202 201 205 201 215 219
235 445 425 430 432 427 379 370 369 379 362 381 351 345 292 276 258 249 232 230 226 213 208 211 214 198 198 198 193 186 191 179 189 187 185 175 181 191 188 191 199 214 209 213
428 386 403 420 411 388 451 415 376 363 348 343 351 368 299 268 267 253 242 235 221 220 226 202 213 215 214 200 190 196 189 188 180 172 186 173 190 187 198 186 210 217 196 225
92 389 405 422 389 401 392 363 360 342 334 331 341 336 338 265 263 251 241 234 230 226 226 213 219 206 202 182 197 191 181 179 181 196 185 187 185 182 193 190 202 198 214 214
432 458 297 101 317 383 360 354 337 344 320 339 327 322 304 335 245 241 244 236 234 235 225 225 207 210 199 193 193 188 186 186 190 161 186 187 172 195 183 205 190 167 214 212
306 241 359 374 360 355 364 344 319 332 312 347 330 298 282 292 278 227 231 241 236 226 224 218 200 203 204 183 192 191 190 185 183 187 181 193 196 193 192 192 188 198 219 226
316 317 315 353 346 332 292 302 324 328 329 333 318 279 277 273 301 241 239 246 239 231 223 214 207 208 206 198 203 195 193 194 196 188 186 196 188 190 195 194 194 207 208 216
296 315 309 314 304 291 302 317 333 314 306 303 310 279 271 260 257 289 269 223 228 228 224 221 209 205 213 208 206 201 196 192 195 182 189 197 197 204 191 193 210 201 209 220
287 295 298 297 300 304 324 320 301 290 280 303 309 289 277 258 254 246 261 224 223 225 216 211 207 206 205 203 185 194 204 193 185 190 206 206 200 209 188 194 192 208 209 221
296 305 303 306 310 305 286 279 284 264 274 243 253 270 270 246 247 240 238 253 224 224 209 208 216 204 206 203 148 192 199 200 193 205 212 157 197 194 180 179 211 200 211 221
308 286 284 284 283 276 275 268 270 273 258 243 243 263 248 230 251 233 226 234 249 236 221 211 210 88 211 194 201 193 108 200 203 205 191 193 195 192 120 191 221 207 207 209
275 268 270 271 268 267 258 256 253 257 256 250 240 262 240 225 233 232 239 245 254 233 229 214 218 212 218 204 205 203 199 170 203 199 203 198 199 197 199 195 213 211 203 211
262 267 266 256 251 247 255 244 242 244 245 244 246 252 250 242 237 235 240 243 256 256 253 244 225 248 225 218 206 215 214 211 195 194 195 199 159 199 226 189 212 174 194 213
261 263 260 248 236 238 230 237 232 232 230 231 238 241 242 252 256 239 243 258 260 252 247 251 236 225 216 214 222 212 205 206 213 205 201 196 211 222 213 185 188 209 230 227
253 249 259 239 239 235 240 230 237 238 237 234 229 236 231 237 229 226 229 229 237 237 236 257 268 264 256 231 227 221 216 214 214 214 215 225 245 242 222 218 210 224 216 206
254 253 243 249 244 239 238 237 240 232 227 227 232 235 245 231 237 240 248 234 239 241 238 232 235 242 247 248 248 243 238 245 245 243 239 239 239 234 232 232 235 218 190 164
250 249 246 231 238 240 245 234 239 225 231 224 230 232 228 222 228 226 225 228 231 230 228 226 231 226 229 226 231 230 228 226 227 228 233 242 246 241 232 231 236 225 211 215
243 244 245 238 233 239 238 241 234 234 235 224 221 220 219 231 226 219 228 224 227 225 225 223 223 220 221 223 230 241 238 244 243 238 227 228 253 262 264 278 225 222 219 222
243 241 250 249 243 238 238 232 243 231 224 233 229 237 224 221 225 227 225 223 224 222 222 222 226 225 231 249 242 251 252 245 251 234 229 228 215 246 256 267 261 261 258 244
249 238 234 243 238 241 243 242 232 249 235 230 232 233 228 227 229 223 223 223 221 222 222 226 244 246 240 242 248 245 242 275 252 248 229 218 235 226 239 261 247 247 252 262
252 244 246 239 239 233 239 239 238 241 240 243 234 236 239 237 231 225 223 222 225 239 245 237 234 235 243 240 244 247 266 242 238 232 213 223 220 219 236 255 225 240 249 253
260 254 247 239 247 248 240 235 239 240 234 236 234 234 236 238 240 243 243 241 239 236 234 234 234 236 229 241 244 243 259 228 222 220 232 230 219 216 226 250 229 242 252 272
247 257 259 251 250 247 244 245 242 235 235 229 226 231 232 232 233 233 233 234 236 242 241 241 234 231 237 242 269 264 261 231 232 224 235 211 221 214 213 239 252 227 239 236
274 265 263 249 262 221 239 255 243 230 243 238 238 235 234 239 238 237 237 236 240 239 239 242 245 268 271 272 261 259 264 232 221 226 230 222 216 213 216 224 238 227 213 244
264 265 262 242 264 259 263 250 264 257 250 247 245 244 243 244 243 241 241 241 247 252 254 262 264 264 263 271 260 254 253 249 227 220 220 218 229 218 210 227 202 234 206 230
Wind_Speed
45 56 61 64 64 88 83 91 91 11 93 104 100 96 17 93 96 89 77 79 76 67 74 69 51 66 74 67 61 62 60 72 50 41 54 57 47 46 44 41 38 42 44 45
35 43 35 40 48 57 66 70 66 62 65 91 98 92 88 90 90 79 78 78 77 71 72 70 73 59 75 65 60 50 63 60 50 44 44 38 42 46 41 36 39 42 42 44
24 24 30 37 36 41 42 57 52 53 65 64 77 78 85 89 92 87 82 83 79 71 75 77 72 73 68 61 59 60 56 60 51 57 49 59 52 49 50 43 39 41 41 43
21 20 22 22 31 37 33 33 40 48 56 56 52 48 79 84 86 85 86 83 79 76 75 73 67 66 62 61 64 55 55 58 60 68 58 60 43 52 42 47 44 45 42 44
25 17 17 20 25 19 22 37 38 44 42 50 46 47 35 81 81 79 79 85 87 83 73 67 63 66 62 69 63 62 67 63 54 58 64 51 48 55 48 48 45 41 45 43
6 14 10 25 18 21 35 33 33 31 40 34 41 41 46 32 74 73 88 84 82 79 66 59 68 64 68 70 69 71 70 65 59 56 68 60 56 51 57 45 50 51 48 43
10 5 9 9 14 22 27 30 33 30 31 32 41 44 52 44 60 78 79 84 79 75 64 61 71 72 70 69 73 71 69 68 62 59 66 62 50 51 54 50 50 46 54 47
19 13 6 7 7 13 20 16 22 24 24 32 41 44 48 59 52 78 81 79 78 76 71 67 72 72 72 72 71 73 69 65 57 63 65 62 54 50 51 51 55 51 48 43
16 16 11 12 15 23 19 18 22 24 27 32 38 52 54 55 53 59 72 68 71 73 70 70 69 69 65 68 68 70 69 64 59 65 68 63 54 54 51 54 60 51 49 46
14 12 14 14 14 15 19 25 29 27 15 7 30 46 46 47 50 56 53 72 76 73 72 71 69 69 70 70 67 73 68 67 61 66 67 61 55 47 51 57 56 58 53 50
14 13 16 20 20 26 33 32 36 35 27 36 21 33 41 48 45 53 60 56 72 73 75 74 71 70 71 71 46 73 71 68 68 67 58 44 50 50 55 54 66 58 55 52
18 27 29 31 34 36 37 36 34 33 34 36 35 39 43 38 49 61 69 68 60 67 70 73 73 25 72 73 75 72 34 72 67 64 60 57 60 51 25 59 67 59 55 48
31 33 34 36 36 37 35 34 33 28 32 38 41 41 54 65 64 64 65 62 58 61 63 71 71 74 76 76 76 75 76 61 64 63 67 62 61 58 60 61 61 62 55 49
30 34 39 40 37 34 36 37 34 32 32 36 39 44 55 62 60 60 61 61 51 45 47 56 67 64 72 75 74 75 77 76 69 69 70 71 57 61 68 59 59 52 56 54
35 37 40 40 38 36 39 38 43 42 44 42 43 44 47 47 49 56 52 42 39 42 50 56 62 67 71 71 74 76 76 77 78 75 75 68 71 69 65 55 53 63 54 58
34 34 40 40 42 45 45 47 47 45 44 50 49 47 50 41 43 46 45 45 42 41 46 43 37 46 58 68 70 71 73 75 77 78 76 77 71 66 64 62 60 60 61 55
38 42 41 44 44 44 43 47 47 44 43 41 40 42 43 43 39 34 38 42 42 43 38 40 43 43 44 48 50 54 59 57 59 60 62 63 64 61 63 63 60 60 54 45
41 43 46 42 43 41 41 43 41 43 43 40 39 39 41 44 41 41 41 40 40 41 41 44 43 46 47 50 55 59 59 59 59 59 60 61 62 61 57 57 61 59 60 62
44 43 46 46 43 45 46 47 48 48 47 47 47 47 47 48 47 45 47 46 47 47 47 46 46 49 52 56 61 60 56 55 53 51 50 52 38 48 59 61 64 65 66 65
44 46 49 48 47 46 47 44 47 50 48 52 52 56 54 50 50 50 51 48 47 45 47 48 51 56 59 54 50 49 46 47 50 49 44 35 42 33 33 47 56 59 65 77
53 45 40 47 45 46 46 47 48 52 55 52 52 54 53 54 55 51 49 50 49 50 51 57 55 51 50 47 43 44 44 44 52 49 45 45 38 43 32 37 39 51 62 68
57 53 54 47 48 48 45 46 46 50 52 54 54 55 57 60 61 57 55 54 58 61 55 53 50 50 48 47 43 45 46 52 53 53 51 48 49 48 37 39 51 59 63 61
57 59 57 46 55 53 51 47 49 50 50 51 51 50 52 53 54 56 58 60 60 57 54 54 54 54 54 52 48 48 52 56 58 60 54 62 52 47 40 43 52 51 52 50
53 56 58 58 58 56 53 54 52 46 48 47 47 50 52 53 53 54 55 55 56 57 57 56 55 54 56 56 52 51 54 63 65 65 64 60 60 52 51 47 47 52 50 56
52 56 55 52 58 43 53 60 53 50 56 55 57 57 57 58 58 58 58 58 59 58 59 59 59 57 53 55 56 54 55 71 68 69 69 74 61 59 56 54 60 64 62 64
52 51 53 51 54 54 55 52 56 57 61 63 64 65 66 66 65 63 64 64 66 67 66 63 59 55 55 59 61 60 62 74 76 72 72 74 79 70 62 60 63 68 65 66
Wind_Direction
278 271 263 262 255 260 261 258 255 251 254 250 246 242 258 239 241 240 240 244 245 238 240 240 256 246 246 246 247 252 252 264 257 252 263 270 267 268 272 277 293 290 286 290
278 277 280 260 255 249 250 251 249 244 234 237 240 246 243 233 241 244 245 245 245 239 236 237 237 254 244 248 248 236 250 250 264 249 253 263 274 274 282 281 286 285 297 293
267 278 250 244 242 245 244 243 242 235 233 233 235 236 229 227 233 234 238 238 238 234 238 233 234 241 244 247 244 241 239 258 254 256 251 262 267 271 272 277 280 296 295 293
294 251 253 235 221 232 244 227 228 225 229 230 231 232 227 228 230 232 235 236 235 232 233 238 233 238 240 245 249 245 245 244 254 263 260 264 262 269 278 275 290 301 277 305
260 257 224 197 205 218 198 206 209 218 224 229 220 223 217 226 228 230 233 235 234 231 227 229 229 234 239 244 244 247 248 247 244 260 260 260 264 268 274 274 287 278 297 299
267 201 230 263 219 177 198 193 205 208 220 222 215 212 219 215 227 226 228 232 234 235 227 225 229 230 233 239 240 243 248 251 246 254 261 260 262 272 270 287 276 269 295 292
121 260 92 148 172 189 201 187 202 199 211 220 199 201 215 216 213 224 227 228 232 233 229 224 228 229 228 242 240 244 246 251 254 255 260 265 267 272 276 278 278 280 296 296
85 61 113 85 159 168 175 195 207 204 201 199 193 190 206 213 212 226 225 225 229 231 230 223 226 229 230 236 235 242 246 248 248 257 260 264 263 268 277 277 277 287 287 289
130 62 100 143 159 165 178 180 174 171 178 195 189 195 206 217 225 226 232 226 231 231 230 227 228 233 234 235 237 240 243 249 246 253 258 263 268 274 269 274 286 279 284 287
138 111 122 141 143 149 158 142 139 130 134 182 202 195 200 207 216 224 227 219 225 228 228 233 229 229 234 236 239 243 243 246 249 251 258 263 265 263 265 270 273 279 281 284
126 127 124 127 132 131 133 142 140 156 142 182 206 198 196 208 211 221 228 230 222 225 232 233 231 233 234 238 243 245 246 245 247 252 255 258 256 256 259 263 279 274 279 278
124 131 131 131 133 139 139 144 143 145 153 179 195 188 187 207 221 222 228 229 223 226 226 232 234 252 235 239 241 246 255 251 250 253 252 257 261 256 262 263 276 273 273 271
143 143 140 138 137 140 149 151 155 151 159 188 199 191 197 211 221 218 226 231 233 231 233 235 237 238 236 241 241 244 249 255 252 253 255 255 254 259 262 267 269 272 270 270
163 155 149 149 147 150 140 153 155 162 168 179 199 202 209 213 217 228 230 234 238 237 238 235 235 239 238 241 245 246 247 250 253 253 255 256 264 261 265 260 262 269 262 266
167 162 157 160 172 163 181 168 178 183 185 195 199 207 219 224 222 227 240 249 245 238 236 236 238 240 241 243 244 244 247 249 252 251 254 258 260 263 260 260 259 261 257 256
174 169 160 172 177 181 180 190 184 181 192 204 209 209 217 216 222 226 234 238 241 242 241 243 243 244 245 244 246 249 250 251 253 255 257 261 261 260 260 259 258 256 253 255
181 174 176 175 185 190 186 194 192 190 193 205 216 218 218 223 228 234 241 238 239 231 232 237 239 238 239 240 242 245 249 250 251 252 254 257 258 258 259 257 252 250 254 252
190 188 182 198 193 196 193 203 200 204 197 206 216 218 219 224 226 224 226 228 230 233 235 235 235 236 239 243 243 243 244 247 250 254 257 256 255 256 254 251 251 246 247 252
196 202 200 198 207 200 203 201 203 204 204 212 216 222 229 227 229 232 231 234 233 236 237 241 243 244 247 251 252 251 250 250 249 248 248 254 247 254 253 250 249 250 250 249
207 208 210 200 206 209 208 213 212 212 219 213 219 219 226 234 233 232 236 240 244 247 249 250 250 250 250 251 253 250 247 243 235 239 233 237 257 263 270 254 244 241 241 242
209 220 222 215 220 220 218 215 219 216 220 226 227 227 231 234 236 241 243 246 248 250 253 256 258 255 255 255 251 248 244 242 221 217 224 235 240 253 265 266 246 251 245 238
210 216 219 225 221 227 230 227 224 222 225 227 230 233 236 237 240 244 246 249 252 255 254 254 257 259 258 253 246 245 243 222 220 219 238 234 239 238 259 261 237 247 244 236
213 216 222 228 226 228 228 233 233 232 234 233 236 239 239 240 241 242 244 247 250 252 254 256 257 258 256 256 248 239 232 230 230 236 231 226 237 238 244 256 230 237 235 237
219 221 220 226 231 234 235 235 238 241 242 243 246 246 247 248 249 250 252 254 256 258 258 258 256 256 255 257 255 247 234 229 226 234 220 242 230 235 240 249 224 219 212 214
218 222 226 226 231 230 233 238 241 242 244 247 248 249 250 251 251 253 255 256 258 257 258 258 260 264 258 248 247 245 243 225 233 230 227 232 236 236 232 235 230 224 234 217
217 221 225 227 233 237 240 241 242 241 241 243 245 247 249 250 251 253 255 257 260 262 263 265 264 260 256 248 245 244 236 228 231 236 235 238 235 240 244 229 248 230 241 231